Regional Weather Roundup
Issued by NWS Sterling, VA

Home | Current Version | Previous Version | Graphics & Text | Print | Product List | Glossary On
Versions: 1 2 3 4 5 6 7 8 9 10 11 12 13 14 15 16 17 18 19 20 21 22 23 24 25 26 27 28 29 30 31 32 33 34 35 36 37 38 39 40 41 42 43 44 45 46 47 48 49 50
000
ASUS41 KLWX 271410
RWRLWX

REGIONAL WEATHER ROUNDUP
NATIONAL WEATHER SERVICE BALTIMORE MD/WASHINGTON DC
1000 AM EDT WED AUG 27 2014

Note: "FAIR" indicates few or no clouds below 12,000 feet
with no significant weather and/or obstructions to visibility.
 TC=TEMPERATURE CELSIUS

 * =Non NWS site. Station does not report precipitation (e.g. rain,
    snow, etc.), thunder, or fog.

DCZ001-MDZ009-015-VAZ040>042-051-053>054-271500-
WASHINGTON METRO
  /KDAA//-FT BELVOIR

CITY           SKY/WX    TMP DP  RH WIND       PRES   REMARKS
WASHINGTON NAT SUNNY     78  67  68 S3        30.09F
DULLES         SUNNY     74  64  71 W3        30.09F
ANDREWS AFB    SUNNY     77  66  68 VRB1      30.08F
QUANTICO       SUNNY     73  67  81 S3        30.09F
COLLEGE PARK*  SUNNY     77  64  65 CALM      30.08S
LEESBURG*      SUNNY     77  64  65 CALM      30.10S
MANASSAS*      SUNNY     72  68  88 CALM      30.09F
GAITHERSBURG*  SUNNY     75  64  69 NW6       30.13S

$$

MDZ006>007-011-014-271500-
BALTIMORE METRO

CITY           SKY/WX    TMP DP  RH WIND       PRES   REMARKS
BWI AIRPORT    SUNNY     77  64  64 CALM      30.07F
MD SCIENCE CTR   N/A     78  66  66 MISG      30.07F
MARTIN STATE   SUNNY     77  72  83 CALM      30.09F
ANNAPOLIS      SUNNY     78  65  63 S3        30.07F
FORT MEADE*    SUNNY     72  64  78 CALM      30.10F

$$

MDZ012-015-019>023-271500-
MARYLAND EASTERN SHORE

CITY           SKY/WX    TMP DP  RH WIND       PRES   REMARKS
OCEAN CITY     SUNNY     77  66  68 NE6       30.06F
SALISBURY      SUNNY     78  63  59 N7        30.07S
BAY BRIDGE AP*   N/A     77  68  73 CALM      30.07F
CAMBRIDGE*     SUNNY     77  66  69 NW3       30.07S
EASTON*        SUNNY     79  70  73 CALM      30.11F

$$

MDZ017>025-271500-
SOUTHERN MARYLAND

CITY           SKY/WX    TMP DP  RH WIND       PRES   REMARKS
PATUXENT RIVER MOSUNNY   77  64  64 NW6       30.08S
ST INIGOES     SUNNY     77  65  66 NW5       30.07S
LEONARDTOWN*   NOT AVBL

$$

MDZ003>005-271500-
NORTH CENTRAL MARYLAND

CITY           SKY/WX    TMP DP  RH WIND       PRES   REMARKS
FREDERICK*     SUNNY     79  68  69 SW6       30.11F
HAGERSTOWN APT SUNNY     72  61  68 S5        30.10S
WESTMINSTER*   SUNNY     75  66  73 CALM      30.09F

$$

MDZ501>502-271500-
WESTERN MARYLAND

CITY           SKY/WX    TMP DP  RH WIND       PRES   REMARKS
OAKLAND*       PTSUNNY   70  63  78 W7        30.20S
CUMBERLAND*    SUNNY     73  61  64 CALM      30.15S

$$

VAZ025>031-271500-
SHENANDOAH VALLEY

CITY           SKY/WX    TMP DP  RH WIND       PRES   REMARKS
WINCHESTER*    SUNNY     73  63  68 S3        30.10F
STAUNTON*      SUNNY     68  59  74 CALM      30.17R

$$

WVZ021-048>050-054>055-271500-
EASTERN WEST VIRGINIA PANHANDLE

CITY           SKY/WX    TMP DP  RH WIND       PRES   REMARKS
MARTINSBURG    SUNNY     73  60  63 VRB3      30.10F
PETERSBURG*    NOT AVBL

$$

VAZ036>039-050-271500-
CENTRAL FOOTHILLS

CITY           SKY/WX    TMP DP  RH WIND       PRES   REMARKS
CHARLOTTESVILL SUNNY     72  64  76 S3        30.11F
ORANGE*        SUNNY     75  63  64 SW3       30.11S

$$

VAZ055>057-271500-
NORTH AND CENTRAL PIEDMONT

CITY           SKY/WX    TMP DP  RH WIND       PRES   REMARKS
FREDERICKSBRG* SUNNY     76  66  70 CALM      30.08F
STAFFORD*      SUNNY     74  70  87 CALM      30.13S

$$

NCZ024-NYZ072-PAZ021-071-VAZ022-071-271500-
OTHER REGIONAL OBSERVATIONS

CITY           SKY/WX    TMP DP  RH WIND       PRES   REMARKS
NEW YORK CITY  SUNNY     79  60  52 CALM      30.06F
PHILADELPHIA   MOSUNNY   76  65  68 S6        30.07S
PITTSBURGH     PTSUNNY   75  67  76 CALM      30.10F
ROANOKE        MOSUNNY   69  59  70 W3        30.16F
RICHMOND       MOSUNNY   78  63  59 N6        30.08F
RALEIGH        MOSUNNY   72  62  71 N6        30.08F

$$

ANZ530>537-271500-
MARINE OBSERVATIONS

STATION/POSITION TIME  TEMP    WIND        PRES
                       AIR SEA DIR/SP/G
                 (UTC) (F)     (DEG/KT/KT) (MB)
THOMAS PT LIGHT  1400   73 78  210/  4/  5 1019.4F
BALT KEY BRIDGE  1400   81      CALM  /  1 1018.2F
COVE POINT       1400   74     340/  3/  4 1018.4R
LEWISETTA        1400   74 78  330/  6/  8 1018.0S
SOLOMONS ISLAND  1400      79                N/A
PINEY POINT      1400          330/  6/  7   N/A

$$




USA.gov is the U.S. government's official web portal to all federal, state and local government web resources and services.